Location: S�deilles
(46.7500°N, 6.9329°E)
Time: 05:17:15
(UTC+00:00)

Resurs 01 Rocket - Pass Details

Date: 08 March 2021
Orbit: 635 x 643 km, 98.0° (Epoch: 22 April)

Event Time Altitude Azimuth Distance (km) Brightness Sun altitude
Exits shadow 21:09:14 18° 299° (WNW) 1,553 4.2 -36.4°
Drops below altitude 10° 21:11:01 10° 320° (NW) 2,034 4.9 -36.6°
Sets 21:13:38 0° 335° (NNW) 2,949 5.8 -36.9°
